User: anonymous   Login
Location: Caltech
(34.1382°N, 118.1253°W)
Time: 02:30:11
(UTC-07:00)
Language:

CZ-2C R/B - Orbit

View from above orbital plane
View from above orbital plane
View from above satellite
View from above satellite

Ground track
Ground track

The orbit data is extracted from the following two-line orbital elements,

1 36089U 09061B   15238.66960700 +.00000038 +00000-0 +20973-4 0  9991
2 36089 098.0687 258.7386 0080910 279.8435 219.7188 14.49479563305928
Epoch (UTC): 26 August 2015 16:04:14
Eccentricity: 0.0080910
inclination: 98.0687°
perigee height: 670 km
apogee height: 785 km
right ascension of ascending node: 258.7386°
argument of perigee: 279.8435°
revolutions per day: 14.49479563
mean anomaly at epoch: 219.7188°
orbit number at epoch: 30592

The dashed part of the orbit path shows where the satellite is in the earth's shadow,  

DLR